User: anonymous   Login
Location: Équennes
(49.7375°N, 1.9622°E)
Time: 15:46:37
(UTC+00:00)
Language:

Meteor 2-17 Rocket - Orbit

View from above orbital plane
View from above orbital plane
View from above satellite
View from above satellite

Ground track
Ground track

The orbit data is extracted from the following two-line orbital elements,

1 18821U 88005B   23149.71375497  .00000044  00000-0  26151-4 0  9990
2 18821  82.5404 132.8061 0014161 352.6715   7.4236 13.85148850785744
Epoch (UTC): 29 May 2023 17:07:48
Eccentricity: 0.0014161
inclination: 82.5404°
perigee height: 935 km
apogee height: 956 km
right ascension of ascending node: 132.8061°
argument of perigee: 352.6715°
revolutions per day: 13.85148850
mean anomaly at epoch: 7.4236°
orbit number at epoch: 78574

The dashed part of the orbit path shows where the satellite is in the earth's shadow,  

DLR